Weather History for KBFD - July, 2013

Change the Weather History Date:

Saturday, July 27, 2013

  Actual Average Record
Temperature  
Mean Temperature 60 °F 65 °F  
Max Temperature 70 °F 77 °F 85 °F (1983)
Min Temperature 50 °F 53 °F 38 °F (2001)
Degree Days  
Heating Degree Days 5 0  
Month to date heating degree days 32 1  
Since 1 June heating degree days 136 146  
Since 1 July heating degree days 32 1  
Cooling Degree Days 0 2  
Month to date cooling degree days 148 62  
Year to date cooling degree days 241 112  
Since 1 June cooling degree days 198 102  
Growing Degree Days 10 (Base 50)    
Moisture  
Dew Point 59 °F    
Average Humidity 81    
Maximum Humidity 96    
Minimum Humidity 66    
Precipitation  
Precipitation 0.48 in 0.13 in 1.22 in (1984)
Month to date precipitation 2.47 3.65  
Year to date precipitation 18.11 25.30  
Sea Level Pressure  
Sea Level Pressure 29.95 in    
Wind  
Wind Speed 5 mph (SSE)    
Max Wind Speed 10 mph    
Max Gust Speed 16 mph    
Visibility 7 miles    
Events Rain    
T = Trace of Precipitation, MM = Missing Value Source: NWS Daily Summary

Daily Weather History Graph

Daily Weather History Graph

Search for Another Location

Airport or City:

Trip Planner

Search our weather history database for the weather conditions in past years. The results will help you decide how hot, cold, wet, or windy it might be!

Date:

Astronomy

Jul. 27, 2013 Rise Set
Actual Time 6:03 AM EDT 8:37 PM EDT
Civil Twilight 5:31 AM EDT 9:09 PM EDT
Nautical Twilight 4:52 AM EDT 9:49 PM EDT
Astronomical Twilight 4:07 AM EDT 10:33 PM EDT
Moon 11:17 PM EDT 11:48 AM EDT
Length of Visible Light 15h 37m
Length of Day
14h 33m
Waning Gibbous, 71% of the Moon is Illuminated
Jul 27
Waning Gibbous
Jul 29
Last Quarter
Aug 6
New
Aug 14
First Quarter
Aug 20
Full

Hourly Weather History & Observations

Time (EDT) Temp. Dew Point Humidity Pressure Visibility Wind Dir Wind Speed Gust Speed Precip Events Conditions
12:53 AM 53.1 °F 50.0 °F 89% 30.04 in 10.0 mi Calm Calm - N/A   Clear
1:53 AM 52.0 °F 48.9 °F 89% 30.02 in 10.0 mi Calm Calm - N/A   Clear
2:53 AM 54.0 °F 51.1 °F 90% 30.00 in 10.0 mi SE 3.5 mph - N/A   Clear
3:53 AM 51.1 °F 48.0 °F 89% 29.99 in 10.0 mi SE 3.5 mph - N/A   Clear
4:53 AM 50.0 °F 48.0 °F 93% 29.99 in 6.0 mi SE 3.5 mph - N/A   Clear
5:53 AM 52.0 °F 50.0 °F 93% 29.98 in 8.0 mi SE 4.6 mph - N/A   Clear
6:53 AM 55.0 °F 52.0 °F 89% 29.98 in 10.0 mi SE 3.5 mph - N/A   Clear
7:53 AM 57.0 °F 53.1 °F 87% 29.99 in 10.0 mi SE 3.5 mph - N/A   Clear
8:53 AM 63.0 °F 55.9 °F 78% 29.99 in 10.0 mi SSE 4.6 mph - N/A   Clear
9:53 AM 66.0 °F 57.0 °F 73% 29.98 in 10.0 mi SSE 6.9 mph - N/A   Clear
10:53 AM 69.1 °F 57.9 °F 68% 29.98 in 10.0 mi South 6.9 mph - N/A   Clear
11:53 AM 70.0 °F 57.9 °F 65% 29.99 in 10.0 mi SSE 5.8 mph - N/A   Clear
12:53 PM 69.1 °F 59.0 °F 70% 29.98 in 8.0 mi South 5.8 mph - 0.00 in Rain Light Rain
1:53 PM 64.9 °F 61.0 °F 87% 29.99 in 4.0 mi SSE 9.2 mph - 0.02 in Rain Light Rain
2:07 PM 64.0 °F 61.0 °F 90% 30.01 in 2.5 mi Variable 6.9 mph - 0.02 in Rain Rain
2:20 PM 64.0 °F 61.0 °F 90% 30.01 in 2.5 mi SSE 6.9 mph - 0.05 in Rain Rain
2:31 PM 64.0 °F 60.1 °F 87% 29.99 in 3.0 mi SSE 9.2 mph - 0.07 in Rain Rain
2:53 PM 63.0 °F 59.0 °F 87% 29.96 in 3.0 mi SSE 6.9 mph - 0.11 in Rain Rain
3:17 PM 63.0 °F 60.1 °F 90% 29.97 in 2.0 mi SE 6.9 mph - 0.06 in Rain Heavy Rain
3:45 PM 64.0 °F 61.0 °F 90% 29.97 in 2.5 mi Calm Calm - 0.11 in Rain Rain
3:53 PM 64.0 °F 61.0 °F 90% 29.94 in 1.8 mi SE 6.9 mph - 0.15 in Rain Heavy Rain
3:58 PM 64.0 °F 62.1 °F 93% 29.96 in 2.0 mi SE 10.4 mph - 0.01 in Rain Rain
4:14 PM 64.0 °F 61.0 °F 90% 29.96 in 2.0 mi SE 6.9 mph - 0.08 in Rain Heavy Rain
4:26 PM 64.0 °F 61.0 °F 90% 29.95 in 3.0 mi SSE 5.8 mph - 0.10 in Rain Rain
4:34 PM 64.0 °F 61.0 °F 90% 29.95 in 2.5 mi SSE 6.9 mph - 0.13 in Rain Rain
4:48 PM 64.4 °F 60.8 °F 88% 29.95 in 5.0 mi SSE 8.1 mph - 0.14 in Rain Light Rain
4:53 PM 64.0 °F 61.0 °F 90% 29.94 in 4.0 mi South 5.8 mph - 0.15 in Rain Rain
5:00 PM 64.0 °F 61.0 °F 90% 29.95 in 5.0 mi South 5.8 mph - 0.00 in Rain Light Rain
5:29 PM 64.9 °F 61.0 °F 87% 29.93 in 10.0 mi SSE 4.6 mph - 0.00 in Rain Light Rain
5:53 PM 64.0 °F 61.0 °F 90% 29.91 in 10.0 mi SSE 4.6 mph - 0.00 in   Overcast
6:53 PM 63.0 °F 60.1 °F 90% 29.90 in 3.0 mi SE 6.9 mph - 0.04 in Rain Rain
7:38 PM 64.0 °F 61.0 °F 90% 29.93 in 10.0 mi SE 4.6 mph - 0.00 in   Mostly Cloudy
7:53 PM 64.0 °F 61.0 °F 90% 29.91 in 10.0 mi SSE 6.9 mph - 0.00 in   Scattered Clouds
8:25 PM 63.0 °F 61.0 °F 93% 29.93 in 10.0 mi SSE 4.6 mph - N/A   Overcast
8:53 PM 63.0 °F 61.0 °F 93% 29.90 in 10.0 mi SSE 5.8 mph - 0.01 in Rain Light Rain
9:02 PM 63.0 °F 61.0 °F 93% 29.92 in 9.0 mi SSE 5.8 mph - 0.00 in Rain Light Rain
9:27 PM 64.0 °F 61.0 °F 90% 29.93 in 8.0 mi SSE 4.6 mph - 0.00 in Rain Light Rain
9:53 PM 64.0 °F 62.1 °F 93% 29.90 in 7.0 mi SSE 4.6 mph - 0.00 in   Overcast
10:48 PM 64.4 °F 62.6 °F 94% 29.92 in 8.0 mi SSE 5.8 mph - N/A   Overcast
10:53 PM 64.9 °F 62.1 °F 90% 29.88 in 8.0 mi Variable 3.5 mph - N/A   Overcast
11:22 PM 64.9 °F 62.1 °F 90% 29.91 in 7.0 mi Variable 4.6 mph - N/A   Overcast
11:29 PM 64.9 °F 62.1 °F 90% 29.91 in 7.0 mi South 5.8 mph - N/A   Mostly Cloudy
11:53 PM 64.9 °F 62.1 °F 90% 29.86 in 8.0 mi Variable 6.9 mph - N/A   Overcast